Weather in Nehe

China     48°28′58″N   124°52′18″E
temp.,
°C
wind,
m/s
gust,
m/s
humid.,
%
clouds,
%
prec.,
mm/h
press.,
hPa
HPBL,
m
11 may, tue
tue1123:00+11sse49605 0.0 1012239
02:00+10sse3960100 0.0 1012269
05:00+9sse31063100 0.0 1012264
08:00+15s61041100 0.0 1011704
11:00+18sse91226100 0.0 10091753
14:00+21s111421100 0.0 10052859
17:00+20sse101626100 0.0 10032779
20:00+17se132136100 0.0 10011441
12 may, wed
wed1223:00+16sse152541100 0.0 9982162
02:00+12s8157498 3.0 9971542
05:00+10ssw9136021 0.3 9941060
08:00+12sw91452100 0.3 9942009
11:00+11sw91155100 0.0 9951526
14:00+10w91264100 0.1 9961316
17:00+11w8126196 0.0 9981314
20:00+9wnw7136838 0.0 1001728
13 may, thu
thu1323:00+9w512641 0.0 1004556
02:00+7w38690 0.0 1005155
05:00+7wnw22642 0.0 100622
08:00+15wsw34390 0.0 1007591
11:00+21wnw582313 0.0 10062510
14:00+23w461832 0.0 10043575
17:00+21nw4525100 0.0 10041318
20:00+18e2232100 0.0 100328
14 may, fri
fri1423:00+15se254595 0.0 100494
02:00+13s6136896 0.1 1002424
05:00+13ssw81674100 0.4 1001743
08:00+11wnw71151100 0.5 1004893
11:00+14wsw61034100 0.1 10041720
14:00+19w9111749 0.1 10013143
17:00+18wnw7102283 0.0 10013255
20:00+14wnw612360 0.0 1004457
15 may, sat
sat1523:00+10w410513 0.0 1005280
02:00+9wnw611575 0.0 1006630
05:00+8wnw512625 0.0 1007860
08:00+13nw78435 0.0 10081348
11:00+18nw79305 0.0 10072052
14:00+21nnw711225 0.0 10052840
17:00+20nw7122110 0.0 10053399
20:00+16w411380 0.0 1004214